Year,Month,Day,Hour,Minute,Value (Times are PST for temperature in C)
2022,10,02,00,00,15.70
2022,10,02,00,01,15.70
2022,10,02,00,02,15.70
2022,10,02,00,03,15.70
2022,10,02,00,04,15.70
2022,10,02,00,05,15.80
2022,10,02,00,06,15.80
2022,10,02,00,07,15.80
2022,10,02,00,08,15.90
2022,10,02,00,09,16.00
2022,10,02,00,10,16.10
2022,10,02,00,11,16.20
2022,10,02,00,12,16.30
2022,10,02,00,13,16.30
2022,10,02,00,14,16.40
2022,10,02,00,15,16.40
2022,10,02,00,16,16.50
2022,10,02,00,17,16.60
2022,10,02,00,18,16.60
2022,10,02,00,19,16.60
2022,10,02,00,20,16.60
2022,10,02,00,21,16.70
2022,10,02,00,22,16.70
2022,10,02,00,23,16.70
2022,10,02,00,24,16.70
2022,10,02,00,25,16.60
2022,10,02,00,26,16.60
2022,10,02,00,27,16.60
2022,10,02,00,28,16.60
2022,10,02,00,29,16.60
2022,10,02,00,30,16.60
2022,10,02,00,31,16.60
2022,10,02,00,32,16.60
2022,10,02,00,33,16.60
2022,10,02,00,34,16.70
2022,10,02,00,35,16.90
2022,10,02,00,36,17.40
2022,10,02,00,37,17.70
2022,10,02,00,38,18.00
2022,10,02,00,39,18.20
2022,10,02,00,40,18.40
2022,10,02,00,41,18.50
2022,10,02,00,42,18.70
2022,10,02,00,43,19.00
2022,10,02,00,44,19.20
2022,10,02,00,45,19.30
2022,10,02,00,46,19.40
2022,10,02,00,47,19.60
2022,10,02,00,48,19.70
2022,10,02,00,49,19.80
2022,10,02,00,50,19.80
2022,10,02,00,51,19.90
2022,10,02,00,52,20.00
2022,10,02,00,53,20.00
2022,10,02,00,54,20.10
2022,10,02,00,55,20.20
2022,10,02,00,56,20.20
2022,10,02,00,57,20.20
2022,10,02,00,58,20.20
2022,10,02,00,59,20.20
2022,10,02,01,00,20.20
2022,10,02,01,01,20.20
2022,10,02,01,02,20.20
2022,10,02,01,03,20.30
2022,10,02,01,04,20.30
2022,10,02,01,05,20.20
2022,10,02,01,06,20.20
2022,10,02,01,07,20.20
2022,10,02,01,08,20.20
2022,10,02,01,09,20.30
2022,10,02,01,10,20.30
2022,10,02,01,11,20.30
2022,10,02,01,12,20.30
2022,10,02,01,13,20.30
2022,10,02,01,14,20.30
2022,10,02,01,15,20.30
2022,10,02,01,16,20.30
2022,10,02,01,17,20.30
2022,10,02,01,18,20.30
2022,10,02,01,19,20.30
2022,10,02,01,20,20.30
2022,10,02,01,21,20.30
2022,10,02,01,22,20.20
2022,10,02,01,23,20.20
2022,10,02,01,24,20.20
2022,10,02,01,25,20.20
2022,10,02,01,26,20.20
2022,10,02,01,27,20.10
2022,10,02,01,28,20.10
2022,10,02,01,29,20.10
2022,10,02,01,30,20.10
2022,10,02,01,31,20.10
2022,10,02,01,32,20.10
2022,10,02,01,33,20.10
2022,10,02,01,34,20.10
2022,10,02,01,35,20.20
2022,10,02,01,36,20.20
2022,10,02,01,37,20.20
2022,10,02,01,38,20.20
2022,10,02,01,39,20.20
2022,10,02,01,40,20.20
2022,10,02,01,41,20.20
2022,10,02,01,42,20.20
2022,10,02,01,43,20.20
2022,10,02,01,44,20.20
2022,10,02,01,45,20.20
2022,10,02,01,46,20.20
2022,10,02,01,47,20.20
2022,10,02,01,48,20.20
2022,10,02,01,49,20.20
2022,10,02,01,50,20.20
2022,10,02,01,51,20.20
2022,10,02,01,52,20.30
2022,10,02,01,53,20.30
2022,10,02,01,54,20.30
2022,10,02,01,55,20.30
2022,10,02,01,56,20.30
2022,10,02,01,57,20.30
2022,10,02,01,58,20.30
2022,10,02,01,59,20.20
2022,10,02,02,00,20.20
2022,10,02,02,01,20.20
2022,10,02,02,02,20.20
2022,10,02,02,03,20.20
2022,10,02,02,04,20.20
2022,10,02,02,05,20.20
2022,10,02,02,06,20.20
2022,10,02,02,07,20.10
2022,10,02,02,08,20.10
2022,10,02,02,09,20.10
2022,10,02,02,10,20.10
2022,10,02,02,11,20.10
2022,10,02,02,12,20.10
2022,10,02,02,13,20.10
2022,10,02,02,14,20.10
2022,10,02,02,15,20.10
2022,10,02,02,16,20.10
2022,10,02,02,17,20.10
2022,10,02,02,18,20.10
2022,10,02,02,19,20.00
2022,10,02,02,20,20.00
2022,10,02,02,21,20.00
2022,10,02,02,22,19.90
2022,10,02,02,23,19.90
2022,10,02,02,24,19.90
2022,10,02,02,25,19.90
2022,10,02,02,26,19.90
2022,10,02,02,27,19.90
2022,10,02,02,28,19.90
2022,10,02,02,29,20.00
2022,10,02,02,30,20.00
2022,10,02,02,31,19.90
2022,10,02,02,32,19.90
2022,10,02,02,33,19.90
2022,10,02,02,34,19.90
2022,10,02,02,35,19.90
2022,10,02,02,36,19.80
2022,10,02,02,37,19.80
2022,10,02,02,38,19.80
2022,10,02,02,39,19.80
2022,10,02,02,40,19.80
2022,10,02,02,41,19.70
2022,10,02,02,42,19.70
2022,10,02,02,43,19.60
2022,10,02,02,44,19.60
2022,10,02,02,45,19.60
2022,10,02,02,46,19.60
2022,10,02,02,47,19.50
2022,10,02,02,48,19.40
2022,10,02,02,49,19.40
2022,10,02,02,50,19.40
2022,10,02,02,51,19.40
2022,10,02,02,52,19.40
2022,10,02,02,53,19.40
2022,10,02,02,54,19.40
2022,10,02,02,55,19.40
2022,10,02,02,56,19.40
2022,10,02,02,57,19.40
2022,10,02,02,58,19.30
2022,10,02,02,59,19.30
2022,10,02,03,00,19.30
2022,10,02,03,01,19.30
2022,10,02,03,02,19.40
2022,10,02,03,03,19.40
2022,10,02,03,04,19.40
2022,10,02,03,05,19.30
2022,10,02,03,06,19.30
2022,10,02,03,07,19.30
2022,10,02,03,08,19.30
2022,10,02,03,09,19.30
2022,10,02,03,10,19.30
2022,10,02,03,11,19.20
2022,10,02,03,12,19.20
2022,10,02,03,13,19.30
2022,10,02,03,14,19.30
2022,10,02,03,15,19.30
2022,10,02,03,16,19.30
2022,10,02,03,17,19.30
2022,10,02,03,18,19.30
2022,10,02,03,19,19.30
2022,10,02,03,20,19.30
2022,10,02,03,21,19.30
2022,10,02,03,22,19.30
2022,10,02,03,23,19.30
2022,10,02,03,24,19.30
2022,10,02,03,25,19.30
2022,10,02,03,26,19.30
2022,10,02,03,27,19.30
2022,10,02,03,28,19.30
2022,10,02,03,29,19.30
2022,10,02,03,30,19.30
2022,10,02,03,31,19.30
2022,10,02,03,32,19.30
2022,10,02,03,33,19.30
2022,10,02,03,34,19.30
2022,10,02,03,35,19.30
2022,10,02,03,36,19.30
2022,10,02,03,37,19.30
2022,10,02,03,38,19.30
2022,10,02,03,39,19.30
2022,10,02,03,40,19.30
2022,10,02,03,41,19.30
2022,10,02,03,42,19.30
2022,10,02,03,43,19.30
2022,10,02,03,44,19.30
2022,10,02,03,45,19.30
2022,10,02,03,46,19.30
2022,10,02,03,47,19.30
2022,10,02,03,48,19.30
2022,10,02,03,49,19.30
2022,10,02,03,50,19.30
2022,10,02,03,51,19.30
2022,10,02,03,52,19.30
2022,10,02,03,53,19.30
2022,10,02,03,54,19.20
2022,10,02,03,55,19.20
2022,10,02,03,56,19.20
2022,10,02,03,57,19.20
2022,10,02,03,58,19.20
2022,10,02,03,59,19.20
2022,10,02,04,00,19.20
2022,10,02,04,01,19.20
2022,10,02,04,02,19.10
2022,10,02,04,03,19.10
2022,10,02,04,04,19.10
2022,10,02,04,05,19.10
2022,10,02,04,06,19.00
2022,10,02,04,07,18.90
2022,10,02,04,08,18.90
2022,10,02,04,09,18.90
2022,10,02,04,10,18.90
2022,10,02,04,11,18.80
2022,10,02,04,12,18.80
2022,10,02,04,13,18.80
2022,10,02,04,14,18.70
2022,10,02,04,15,18.70
2022,10,02,04,16,18.70
2022,10,02,04,17,18.70
2022,10,02,04,18,18.70
2022,10,02,04,19,18.60
2022,10,02,04,20,18.60
2022,10,02,04,21,18.60
2022,10,02,04,22,18.50
2022,10,02,04,23,18.50
2022,10,02,04,24,18.50
2022,10,02,04,25,18.50
2022,10,02,04,26,18.50
2022,10,02,04,27,18.50
2022,10,02,04,28,18.50
2022,10,02,04,29,18.50
2022,10,02,04,30,18.50
2022,10,02,04,31,18.50
2022,10,02,04,32,18.50
2022,10,02,04,33,18.50
2022,10,02,04,34,18.50
2022,10,02,04,35,18.40
2022,10,02,04,36,18.40
2022,10,02,04,37,18.40
2022,10,02,04,38,18.40
2022,10,02,04,39,18.40
2022,10,02,04,40,18.40
2022,10,02,04,41,18.50
2022,10,02,04,42,18.50
2022,10,02,04,43,18.50
2022,10,02,04,44,18.50
2022,10,02,04,45,18.40
2022,10,02,04,46,18.40
2022,10,02,04,47,18.40
2022,10,02,04,48,18.40
2022,10,02,04,49,18.30
2022,10,02,04,50,18.30
2022,10,02,04,51,18.20
2022,10,02,04,52,18.10
2022,10,02,04,53,18.10
2022,10,02,04,54,18.00
2022,10,02,04,55,17.90
2022,10,02,04,56,17.90
2022,10,02,04,57,17.90
2022,10,02,04,58,17.80
2022,10,02,04,59,17.80
2022,10,02,05,00,17.80
2022,10,02,05,01,17.80
2022,10,02,05,02,17.80
2022,10,02,05,03,17.80
2022,10,02,05,04,17.80
2022,10,02,05,05,17.70
2022,10,02,05,06,17.70
2022,10,02,05,07,17.70
2022,10,02,05,08,17.70
2022,10,02,05,09,17.70
2022,10,02,05,10,17.70
2022,10,02,05,11,17.80
2022,10,02,05,12,17.80
2022,10,02,05,13,17.90
2022,10,02,05,14,17.90
2022,10,02,05,15,18.00
2022,10,02,05,16,18.00
2022,10,02,05,17,18.10
2022,10,02,05,18,18.10
2022,10,02,05,19,18.10
2022,10,02,05,20,18.10
2022,10,02,05,21,18.10
2022,10,02,05,22,18.10
2022,10,02,05,23,18.10
2022,10,02,05,24,18.10
2022,10,02,05,25,18.00
2022,10,02,05,26,18.00
2022,10,02,05,27,18.00
2022,10,02,05,28,18.00
2022,10,02,05,29,17.90
2022,10,02,05,30,17.90
2022,10,02,05,31,18.00
2022,10,02,05,32,18.00
2022,10,02,05,33,18.10
2022,10,02,05,34,18.10
2022,10,02,05,35,18.10
2022,10,02,05,36,18.10
2022,10,02,05,37,18.20
2022,10,02,05,38,18.20
2022,10,02,05,39,18.20
2022,10,02,05,40,18.20
2022,10,02,05,41,18.30
2022,10,02,05,42,18.30
2022,10,02,05,43,18.30
2022,10,02,05,44,18.30
2022,10,02,05,45,18.30
2022,10,02,05,46,18.30
2022,10,02,05,47,18.20
2022,10,02,05,48,18.20
2022,10,02,05,49,18.20
2022,10,02,05,50,18.20
2022,10,02,05,51,18.20
2022,10,02,05,52,18.20
2022,10,02,05,53,18.20
2022,10,02,05,54,18.20
2022,10,02,05,55,18.20
2022,10,02,05,56,18.20
2022,10,02,05,57,18.10
2022,10,02,05,58,18.10
2022,10,02,05,59,18.10
2022,10,02,06,00,18.10
2022,10,02,06,01,18.10
2022,10,02,06,02,18.00
2022,10,02,06,03,18.00
2022,10,02,06,04,18.00
2022,10,02,06,05,18.00
2022,10,02,06,06,17.90
2022,10,02,06,07,17.90
2022,10,02,06,08,17.90
2022,10,02,06,09,17.90
2022,10,02,06,10,17.90
2022,10,02,06,11,17.90
2022,10,02,06,12,17.90
2022,10,02,06,13,17.90
2022,10,02,06,14,17.90
2022,10,02,06,15,17.90
2022,10,02,06,16,17.90
2022,10,02,06,17,17.90
2022,10,02,06,18,17.90
2022,10,02,06,19,17.90
2022,10,02,06,20,17.90
2022,10,02,06,21,17.90
2022,10,02,06,22,17.90
2022,10,02,06,23,17.90
2022,10,02,06,24,17.90
2022,10,02,06,25,17.90
2022,10,02,06,26,17.90
2022,10,02,06,27,17.90
2022,10,02,06,28,17.90
2022,10,02,06,29,17.90
2022,10,02,06,30,17.90
2022,10,02,06,31,17.80
2022,10,02,06,32,17.80
2022,10,02,06,33,17.80
2022,10,02,06,34,17.80
2022,10,02,06,35,17.80
2022,10,02,06,36,17.80
2022,10,02,06,37,17.70
2022,10,02,06,38,17.70
2022,10,02,06,39,17.70
2022,10,02,06,40,17.70
2022,10,02,06,41,17.70
2022,10,02,06,42,17.70
2022,10,02,06,43,17.70
2022,10,02,06,44,17.70
2022,10,02,06,45,17.60
2022,10,02,06,46,17.60
2022,10,02,06,47,17.50
2022,10,02,06,48,17.40
2022,10,02,06,49,17.30
2022,10,02,06,50,17.30
2022,10,02,06,51,17.20
2022,10,02,06,52,17.20
2022,10,02,06,53,17.10
2022,10,02,06,54,17.10
2022,10,02,06,55,17.10
2022,10,02,06,56,17.10
2022,10,02,06,57,17.10
2022,10,02,06,58,17.10
2022,10,02,06,59,17.10
2022,10,02,07,00,17.10
2022,10,02,07,01,17.10
2022,10,02,07,02,17.10
2022,10,02,07,03,17.10
2022,10,02,07,04,17.10
2022,10,02,07,05,17.10
2022,10,02,07,06,17.10
2022,10,02,07,07,17.10
2022,10,02,07,08,17.10
2022,10,02,07,09,17.10
2022,10,02,07,10,17.10
2022,10,02,07,11,17.00
2022,10,02,07,12,17.00
2022,10,02,07,13,17.00
2022,10,02,07,14,17.00
2022,10,02,07,15,16.90
2022,10,02,07,16,16.90
2022,10,02,07,17,16.90
2022,10,02,07,18,16.90
2022,10,02,07,19,16.90
2022,10,02,07,20,16.90
2022,10,02,07,21,16.80
2022,10,02,07,22,16.80
2022,10,02,07,23,16.80
2022,10,02,07,24,16.80
2022,10,02,07,25,16.80
2022,10,02,07,26,16.80
2022,10,02,07,27,16.80
2022,10,02,07,28,16.80
2022,10,02,07,29,16.80
2022,10,02,07,30,16.80
2022,10,02,07,31,16.80
2022,10,02,07,32,16.80
2022,10,02,07,33,16.80
2022,10,02,07,34,16.80
2022,10,02,07,35,16.80
2022,10,02,07,36,16.80
2022,10,02,07,37,16.80
2022,10,02,07,38,16.90
2022,10,02,07,39,16.90
2022,10,02,07,40,16.90
2022,10,02,07,41,16.90
2022,10,02,07,42,16.90
2022,10,02,07,43,16.90
2022,10,02,07,44,16.90
2022,10,02,07,45,16.90
2022,10,02,07,46,16.90
2022,10,02,07,47,17.00
2022,10,02,07,48,17.00
2022,10,02,07,49,17.00
2022,10,02,07,50,17.00
2022,10,02,07,51,17.10
2022,10,02,07,52,17.10
2022,10,02,07,53,17.10
2022,10,02,07,54,17.10
2022,10,02,07,55,17.10
2022,10,02,07,56,17.20
2022,10,02,07,57,17.20
2022,10,02,07,58,17.20
2022,10,02,07,59,17.20
2022,10,02,08,00,17.30
2022,10,02,08,01,17.30
2022,10,02,08,02,17.30
2022,10,02,08,03,17.30
2022,10,02,08,04,17.30
2022,10,02,08,05,17.40
2022,10,02,08,06,17.40
2022,10,02,08,07,17.40
2022,10,02,08,08,17.40
2022,10,02,08,09,17.40
2022,10,02,08,10,17.40
2022,10,02,08,11,17.40
2022,10,02,08,12,17.40
2022,10,02,08,13,17.50
2022,10,02,08,14,17.50
2022,10,02,08,15,17.50
2022,10,02,08,16,17.50
2022,10,02,08,17,17.50
2022,10,02,08,18,17.60
2022,10,02,08,19,17.60
2022,10,02,08,20,17.60
2022,10,02,08,21,17.60
2022,10,02,08,22,17.60
2022,10,02,08,23,17.60
2022,10,02,08,24,17.70
2022,10,02,08,25,17.70
2022,10,02,08,26,17.70
2022,10,02,08,27,17.80
2022,10,02,08,28,17.80
2022,10,02,08,29,17.80
2022,10,02,08,30,17.80
2022,10,02,08,31,17.90
2022,10,02,08,32,17.90
2022,10,02,08,33,17.90
2022,10,02,08,34,18.00
2022,10,02,08,35,18.00
2022,10,02,08,36,18.00
2022,10,02,08,37,18.10
2022,10,02,08,38,18.10
2022,10,02,08,39,18.10
2022,10,02,08,40,18.10
2022,10,02,08,41,18.10
2022,10,02,08,42,18.10
2022,10,02,08,43,18.20
2022,10,02,08,44,18.20
2022,10,02,08,45,18.20
2022,10,02,08,46,18.20
2022,10,02,08,47,18.20
2022,10,02,08,48,18.30
2022,10,02,08,49,18.30
2022,10,02,08,50,18.30
2022,10,02,08,51,18.30
2022,10,02,08,52,18.40
2022,10,02,08,53,18.40
2022,10,02,08,54,18.40
2022,10,02,08,55,18.40
2022,10,02,08,56,18.50
2022,10,02,08,57,18.50
2022,10,02,08,58,18.60
2022,10,02,08,59,18.60
2022,10,02,09,00,18.60
2022,10,02,09,01,18.60
2022,10,02,09,02,18.60
2022,10,02,09,03,18.70
2022,10,02,09,04,18.70
2022,10,02,09,05,18.70
2022,10,02,09,06,18.70
2022,10,02,09,07,18.70
2022,10,02,09,08,18.80
2022,10,02,09,09,18.80
2022,10,02,09,10,18.80
2022,10,02,09,11,18.80
2022,10,02,09,12,18.80
2022,10,02,09,13,18.80
2022,10,02,09,14,18.80
2022,10,02,09,15,18.80
2022,10,02,09,16,18.90
2022,10,02,09,17,18.90
2022,10,02,09,18,18.90
2022,10,02,09,19,18.90
2022,10,02,09,20,19.00
2022,10,02,09,21,19.00
2022,10,02,09,22,19.00
2022,10,02,09,23,19.00
2022,10,02,09,24,19.00
2022,10,02,09,25,18.90
2022,10,02,09,26,18.90
2022,10,02,09,27,18.80
2022,10,02,09,28,18.80
2022,10,02,09,29,18.70
2022,10,02,09,30,18.60
2022,10,02,09,31,18.60
2022,10,02,09,32,18.50
2022,10,02,09,33,18.50
2022,10,02,09,34,18.40
2022,10,02,09,35,18.40
2022,10,02,09,36,18.40
2022,10,02,09,37,18.50
2022,10,02,09,38,18.40
2022,10,02,09,39,18.40
2022,10,02,09,40,18.40
2022,10,02,09,41,18.40
2022,10,02,09,42,18.40
2022,10,02,09,43,18.40
2022,10,02,09,44,18.50
2022,10,02,09,45,18.50
2022,10,02,09,46,18.60
2022,10,02,09,47,18.60
2022,10,02,09,48,18.60
2022,10,02,09,49,18.60
2022,10,02,09,50,18.60
2022,10,02,09,51,18.70
2022,10,02,09,52,18.70
2022,10,02,09,53,18.70
2022,10,02,09,54,18.70
2022,10,02,09,55,18.70
2022,10,02,09,56,18.70
2022,10,02,09,57,18.70
2022,10,02,09,58,18.70
2022,10,02,09,59,18.70
2022,10,02,10,00,18.70
2022,10,02,10,01,18.70
2022,10,02,10,02,18.70
2022,10,02,10,03,18.70
2022,10,02,10,04,18.70
2022,10,02,10,05,18.70
2022,10,02,10,06,18.70
2022,10,02,10,07,18.70
2022,10,02,10,08,18.70
2022,10,02,10,09,18.70
2022,10,02,10,10,18.70
2022,10,02,10,11,18.60
2022,10,02,10,12,18.70
2022,10,02,10,13,18.70
2022,10,02,10,14,18.60
2022,10,02,10,15,18.60
2022,10,02,10,16,18.60
2022,10,02,10,17,18.60
2022,10,02,10,18,18.60
2022,10,02,10,19,18.70
2022,10,02,10,20,18.70
2022,10,02,10,21,18.80
2022,10,02,10,22,18.80
2022,10,02,10,23,18.80
2022,10,02,10,24,18.90
2022,10,02,10,25,18.90
2022,10,02,10,26,18.90
2022,10,02,10,27,18.90
2022,10,02,10,28,18.90
2022,10,02,10,29,18.90
2022,10,02,10,30,18.90
2022,10,02,10,31,19.00
2022,10,02,10,32,19.00
2022,10,02,10,33,18.90
2022,10,02,10,34,18.90
2022,10,02,10,35,18.90
2022,10,02,10,36,19.00
2022,10,02,10,37,19.00
2022,10,02,10,38,19.10
2022,10,02,10,39,19.20
2022,10,02,10,40,19.30
2022,10,02,10,41,19.40
2022,10,02,10,42,19.50
2022,10,02,10,43,19.50
2022,10,02,10,44,19.50
2022,10,02,10,45,19.50
2022,10,02,10,46,19.50
2022,10,02,10,47,19.60
2022,10,02,10,48,19.60
2022,10,02,10,49,19.70
2022,10,02,10,50,19.70
2022,10,02,10,51,19.70
2022,10,02,10,52,19.60
2022,10,02,10,53,19.60
2022,10,02,10,54,19.70
2022,10,02,10,55,19.80
2022,10,02,10,56,19.90
2022,10,02,10,57,20.00
2022,10,02,10,58,20.00
2022,10,02,10,59,20.10
2022,10,02,11,00,20.20
2022,10,02,11,01,20.30
2022,10,02,11,02,20.30
2022,10,02,11,03,20.40
2022,10,02,11,04,20.40
2022,10,02,11,05,20.40
2022,10,02,11,06,20.40
2022,10,02,11,07,20.40
2022,10,02,11,08,20.40
2022,10,02,11,09,20.40
2022,10,02,11,10,20.40
2022,10,02,11,11,20.40
2022,10,02,11,12,20.50
2022,10,02,11,13,20.60
2022,10,02,11,14,20.60
2022,10,02,11,15,20.70
2022,10,02,11,16,20.70
2022,10,02,11,17,20.80
2022,10,02,11,18,20.80
2022,10,02,11,19,20.90
2022,10,02,11,20,20.90
2022,10,02,11,21,20.90
2022,10,02,11,22,20.90
2022,10,02,11,23,20.90
2022,10,02,11,24,21.00
2022,10,02,11,25,21.00
2022,10,02,11,26,21.10
2022,10,02,11,27,21.10
2022,10,02,11,28,21.20
2022,10,02,11,29,21.30
2022,10,02,11,30,21.30
2022,10,02,11,31,21.30
2022,10,02,11,32,21.30
2022,10,02,11,33,21.30
2022,10,02,11,34,21.40
2022,10,02,11,35,21.40
2022,10,02,11,36,21.40
2022,10,02,11,37,21.50
2022,10,02,11,38,21.50
2022,10,02,11,39,21.60
2022,10,02,11,40,21.60
2022,10,02,11,41,21.60
2022,10,02,11,42,21.60
2022,10,02,11,43,21.60
2022,10,02,11,44,21.60
2022,10,02,11,45,21.70
2022,10,02,11,46,21.70
2022,10,02,11,47,21.70
2022,10,02,11,48,21.70
2022,10,02,11,49,21.70
2022,10,02,11,50,21.60
2022,10,02,11,51,21.60
2022,10,02,11,52,21.60
2022,10,02,11,53,21.50
2022,10,02,11,54,21.50
2022,10,02,11,55,21.40
2022,10,02,11,56,21.40
2022,10,02,11,57,21.40
2022,10,02,11,58,21.40
2022,10,02,11,59,21.40
2022,10,02,12,00,21.40
2022,10,02,12,01,21.40
2022,10,02,12,02,21.40
2022,10,02,12,03,21.40
2022,10,02,12,04,21.50
2022,10,02,12,05,21.60
2022,10,02,12,06,21.60
2022,10,02,12,07,21.60
2022,10,02,12,08,21.60
2022,10,02,12,09,21.70
2022,10,02,12,10,21.70
2022,10,02,12,11,21.70
2022,10,02,12,12,21.70
2022,10,02,12,13,21.70
2022,10,02,12,14,21.80
2022,10,02,12,15,21.80
2022,10,02,12,16,21.90
2022,10,02,12,17,21.90
2022,10,02,12,18,22.00
2022,10,02,12,19,22.10
2022,10,02,12,20,22.10
2022,10,02,12,21,22.20
2022,10,02,12,22,22.20
2022,10,02,12,23,22.20
2022,10,02,12,24,22.20
2022,10,02,12,25,22.20
2022,10,02,12,26,22.20
2022,10,02,12,27,22.20
2022,10,02,12,28,22.30
2022,10,02,12,29,22.30
2022,10,02,12,30,22.40
2022,10,02,12,31,22.30
2022,10,02,12,32,22.30
2022,10,02,12,33,22.30
2022,10,02,12,34,22.30
2022,10,02,12,35,22.30
2022,10,02,12,36,22.30
2022,10,02,12,37,22.30
2022,10,02,12,38,22.30
2022,10,02,12,39,22.30
2022,10,02,12,40,22.30
2022,10,02,12,41,22.40
2022,10,02,12,42,22.40
2022,10,02,12,43,22.40
2022,10,02,12,44,22.40
2022,10,02,12,45,22.50
2022,10,02,12,46,22.50
2022,10,02,12,47,22.50
2022,10,02,12,48,22.50
2022,10,02,12,49,22.40
2022,10,02,12,50,22.40
2022,10,02,12,51,22.40
2022,10,02,12,52,22.40
2022,10,02,12,53,22.40
2022,10,02,12,54,22.40
2022,10,02,12,55,22.40
2022,10,02,12,56,22.40
2022,10,02,12,57,22.50
2022,10,02,12,58,22.50
2022,10,02,12,59,22.50
2022,10,02,13,00,22.50
2022,10,02,13,01,22.60
2022,10,02,13,02,22.60
2022,10,02,13,03,22.60
2022,10,02,13,04,22.60
2022,10,02,13,05,22.60
2022,10,02,13,06,22.60
2022,10,02,13,07,22.60
2022,10,02,13,08,22.60
2022,10,02,13,09,22.60
2022,10,02,13,10,22.50
2022,10,02,13,11,22.40
2022,10,02,13,12,22.40
2022,10,02,13,13,22.40
2022,10,02,13,14,22.40
2022,10,02,13,15,22.40
2022,10,02,13,16,22.40
2022,10,02,13,17,22.30
2022,10,02,13,18,22.30
2022,10,02,13,19,22.40
2022,10,02,13,20,22.40
2022,10,02,13,21,22.40
2022,10,02,13,22,22.40
2022,10,02,13,23,22.40
2022,10,02,13,24,22.40
2022,10,02,13,25,22.40
2022,10,02,13,26,22.40
2022,10,02,13,27,22.40
2022,10,02,13,28,22.30
2022,10,02,13,29,22.40
2022,10,02,13,30,22.40
2022,10,02,13,31,22.40
2022,10,02,13,32,22.50
2022,10,02,13,33,22.60
2022,10,02,13,34,22.60
2022,10,02,13,35,22.70
2022,10,02,13,36,22.70
2022,10,02,13,37,22.70
2022,10,02,13,38,22.70
2022,10,02,13,39,22.70
2022,10,02,13,40,22.80
2022,10,02,13,41,22.80
2022,10,02,13,42,22.80
2022,10,02,13,43,22.80
2022,10,02,13,44,22.80
2022,10,02,13,45,22.80
2022,10,02,13,46,22.80
2022,10,02,13,47,22.80
2022,10,02,13,48,22.80
2022,10,02,13,49,22.80
2022,10,02,13,50,22.80
2022,10,02,13,51,22.80
2022,10,02,13,52,22.80
2022,10,02,13,53,22.90
2022,10,02,13,54,23.00
2022,10,02,13,55,23.00
2022,10,02,13,56,23.10
2022,10,02,13,57,23.10
2022,10,02,13,58,23.20
2022,10,02,13,59,23.20
2022,10,02,14,00,23.20
2022,10,02,14,01,23.30
2022,10,02,14,02,23.30
2022,10,02,14,03,23.40
2022,10,02,14,04,23.40
2022,10,02,14,05,23.40
2022,10,02,14,06,23.40
2022,10,02,14,07,23.40
2022,10,02,14,08,23.40
2022,10,02,14,09,23.40
2022,10,02,14,10,23.40
2022,10,02,14,11,23.40
2022,10,02,14,12,23.40
2022,10,02,14,13,23.40
2022,10,02,14,14,23.40
2022,10,02,14,15,23.50
2022,10,02,14,16,23.50
2022,10,02,14,17,23.60
2022,10,02,14,18,23.60
2022,10,02,14,19,23.60
2022,10,02,14,20,23.60
2022,10,02,14,21,23.50
2022,10,02,14,22,23.40
2022,10,02,14,23,23.30
2022,10,02,14,24,23.30
2022,10,02,14,25,23.20
2022,10,02,14,26,23.20
2022,10,02,14,27,23.10
2022,10,02,14,28,23.10
2022,10,02,14,29,23.10
2022,10,02,14,30,23.10
2022,10,02,14,31,23.10
2022,10,02,14,32,23.10
2022,10,02,14,33,23.10
2022,10,02,14,34,23.10
2022,10,02,14,35,23.10
2022,10,02,14,36,23.10
2022,10,02,14,37,23.10
2022,10,02,14,38,23.10
2022,10,02,14,39,23.10
2022,10,02,14,40,23.20
2022,10,02,14,41,23.20
2022,10,02,14,42,23.20
2022,10,02,14,43,23.30
2022,10,02,14,44,23.30
2022,10,02,14,45,23.30
2022,10,02,14,46,23.30
2022,10,02,14,47,23.40
2022,10,02,14,48,23.40
2022,10,02,14,49,23.40
2022,10,02,14,50,23.50
2022,10,02,14,51,23.50
2022,10,02,14,52,23.60
2022,10,02,14,53,23.50
2022,10,02,14,54,23.50
2022,10,02,14,55,23.60
2022,10,02,14,56,23.60
2022,10,02,14,57,23.60
2022,10,02,14,58,23.70
2022,10,02,14,59,23.80
2022,10,02,15,00,23.80
2022,10,02,15,01,23.90
2022,10,02,15,02,23.90
2022,10,02,15,03,23.90
2022,10,02,15,04,24.00
2022,10,02,15,05,24.00
2022,10,02,15,06,24.00
2022,10,02,15,07,24.00
2022,10,02,15,08,24.00
2022,10,02,15,09,24.00
2022,10,02,15,10,24.10
2022,10,02,15,11,24.10
2022,10,02,15,12,24.20
2022,10,02,15,13,24.20
2022,10,02,15,14,24.30
2022,10,02,15,15,24.30
2022,10,02,15,16,24.40
2022,10,02,15,17,24.40
2022,10,02,15,18,24.50
2022,10,02,15,19,24.50
2022,10,02,15,20,24.60
2022,10,02,15,21,24.70
2022,10,02,15,22,24.70
2022,10,02,15,23,24.70
2022,10,02,15,24,24.80
2022,10,02,15,25,24.80
2022,10,02,15,26,24.80
2022,10,02,15,27,24.70
2022,10,02,15,28,24.70
2022,10,02,15,29,24.70
2022,10,02,15,30,24.70
2022,10,02,15,31,24.80
2022,10,02,15,32,24.80
2022,10,02,15,33,24.80
2022,10,02,15,34,24.70
2022,10,02,15,35,24.60
2022,10,02,15,36,24.60
2022,10,02,15,37,24.60
2022,10,02,15,38,24.60
2022,10,02,15,39,24.60
2022,10,02,15,40,24.50
2022,10,02,15,41,24.60
2022,10,02,15,42,24.60
2022,10,02,15,43,24.60
2022,10,02,15,44,24.70
2022,10,02,15,45,24.70
2022,10,02,15,46,24.80
2022,10,02,15,47,24.80
2022,10,02,15,48,24.80
2022,10,02,15,49,24.80
2022,10,02,15,50,24.80
2022,10,02,15,51,24.80
2022,10,02,15,52,24.80
2022,10,02,15,53,24.80
2022,10,02,15,54,24.80
2022,10,02,15,55,24.70
2022,10,02,15,56,24.70
2022,10,02,15,57,24.60
2022,10,02,15,58,24.60
2022,10,02,15,59,24.60
2022,10,02,16,00,24.50
2022,10,02,16,01,24.50
2022,10,02,16,02,24.50
2022,10,02,16,03,24.40
2022,10,02,16,04,24.30
2022,10,02,16,05,24.30
2022,10,02,16,06,24.20
2022,10,02,16,07,24.20
2022,10,02,16,08,24.20
2022,10,02,16,09,24.30
2022,10,02,16,10,24.30
2022,10,02,16,11,24.30
2022,10,02,16,12,24.40
2022,10,02,16,13,24.40
2022,10,02,16,14,24.50
2022,10,02,16,15,24.50
2022,10,02,16,16,24.50
2022,10,02,16,17,24.50
2022,10,02,16,18,24.50
2022,10,02,16,19,24.50
2022,10,02,16,20,24.40
2022,10,02,16,21,24.40
2022,10,02,16,22,24.40
2022,10,02,16,23,24.40
2022,10,02,16,24,24.50
2022,10,02,16,25,24.50
2022,10,02,16,26,24.60
2022,10,02,16,27,24.50
2022,10,02,16,28,24.40
2022,10,02,16,29,24.40
2022,10,02,16,30,24.30
2022,10,02,16,31,24.30
2022,10,02,16,32,24.30
2022,10,02,16,33,24.30
2022,10,02,16,34,24.30
2022,10,02,16,35,24.30
2022,10,02,16,36,24.30
2022,10,02,16,37,24.30
2022,10,02,16,38,24.30
2022,10,02,16,39,24.30
2022,10,02,16,40,24.30
2022,10,02,16,41,24.30
2022,10,02,16,42,24.30
2022,10,02,16,43,24.30
2022,10,02,16,44,24.30
2022,10,02,16,45,24.30
2022,10,02,16,46,24.40
2022,10,02,16,47,24.40
2022,10,02,16,48,24.40
2022,10,02,16,49,24.50
2022,10,02,16,50,24.50
2022,10,02,16,51,24.60
2022,10,02,16,52,24.60
2022,10,02,16,53,24.60
2022,10,02,16,54,24.60
2022,10,02,16,55,24.60
2022,10,02,16,56,24.70
2022,10,02,16,57,24.70
2022,10,02,16,58,24.70
2022,10,02,16,59,24.70
2022,10,02,17,00,24.70
2022,10,02,17,01,24.70
2022,10,02,17,02,24.80
2022,10,02,17,03,24.80
2022,10,02,17,04,24.80
2022,10,02,17,05,24.70
2022,10,02,17,06,24.70
2022,10,02,17,07,24.70
2022,10,02,17,08,24.70
2022,10,02,17,09,24.70
2022,10,02,17,10,24.80
2022,10,02,17,11,24.80
2022,10,02,17,12,24.80
2022,10,02,17,13,24.70
2022,10,02,17,14,24.70
2022,10,02,17,15,24.60
2022,10,02,17,16,24.60
2022,10,02,17,17,24.60
2022,10,02,17,18,24.60
2022,10,02,17,19,24.50